SCP
-0 -0 -0 -0 -0 -0 -0 0 0 0 0 0 0 0 0 0 0 0 0 0 0 0 0 0 0 0 0 0 0 0 0 0 0 0 0 0 0 0 0 0 0 0 0
-0 -0 -0 -0 -0 -0 -0 -0 -0 -0 0 0 0 0 0 0 0 0 0 0 0 0 0 0 0 0 0 0 0 0 0 0 0 0 0 0 0 0 0 0 0 0 0
-0 -0 -0 -0 -0 -0 -0 -0 -0 0 -0 0 0 0 0 0 0 0 0 0 0 0 0 0 0 0 0 0 0 0 0 0 0 0 0 0 0 0 0 0 0 0 0
0 0 0 0 0 0 0 0 0 0 0 0 0 0 0 0 0 0 0 0 0 0 0 0 0 0 0 0 0 0 0 0 0 0 0 0 0 0 0 0 0 0 0
0 0 0 0 0 0 0 0 0 0 0 0 0 0 0 0 0 0 0 0 0 0 0 0 0 0 0 0 0 0 0 0 0 0 0 0 0 0 0 0 0 0 0
0 0 0 0 0 0 0 0 0 0 0 0 0 0 0 0 0 0 0 0 0 0 0 0 0 0 0 0 0 0 0 0 0 0 0 0 0 0 0 0 0 0 0
0 0 0 0 0 0 0 0 0 0 0 0 0 0 -0 0 0 0 0 0 0 0 0 0 0 0 0 0 0 0 0 0 0 0 0 0 0 0 0 0 0 0 0
0 0 0 0 0 0 0 0 0 0 0 0 0 0 0 0 -0 -0 0 0 0 0 0 0 0 0 0 0 0 0 0 0 0 0 0 0 0 0 0 0 0 0 0
0 0 0 0 0 0 0 0 0 0 0 0 0 0 0 0 0 0 0 0 -0 0 0 0 0 0 0 0 0 0 0 0 0 0 0 0 0 0 0 0 0 0 0
0 0 0 0 0 0 0 0 0 0 0 0 0 0 0 0 0 0 0 0 0 0 -0 0 0 0 0 0 0 0 0 0 0 0 0 0 0 0 0 0 0 0 0
0 0 0 0 0 0 0 0 0 0 0 0 0 0 0 0 0 0 0 0 0 0 0 0 0 0 0 0 0 0 0 0 0 0 0 0 0 0 0 0 0 0 0
0 0 0 0 0 0 0 0 0 0 0 0 0 0 0 0 0 0 0 0 0 0 0 0 0 0 0 0 0 0 0 0 0 0 0 0 0 0 0 0 0 0 0
0 0 0 0 0 0 0 0 0 0 0 0 0 0 0 0 0 0 0 0 0 0 0 0 0 0 0 0 0 0 0 0 0 0 0 0 0 0 0 0 0 0 0
0 0 0 0 0 0 0 0 0 0 0 0 0 0 0 0 0 0 0 0 0 0 0 0 0 0 0 0 0 0 0 0 0 0 0 0 0 0 0 0 0 0 0
0 0 0 0 0 0 0 0 0 0 0 0 0 0 0 0 0 0 0 0 0 0 0 0 0 0 0 0 0 0 0 0 0 0 0 0 0 0 0 0 0 0 0
0 0 0 0 0 0 0 0 0 0 0 0 0 0 0 0 -0 -0 -0 -0 -0 0 0 0 0 0 0 0 0 0 0 0 0 0 0 0 0 0 0 0 0 0 0
0 0 0 0 0 0 0 0 0 0 0 0 0 0 0 -0 -0 -0 -0 -0 -0 0 0 0 0 0 0 0 0 0 0 0 0 0 0 0 0 0 0 0 0 0 0
0 0 0 0 0 0 0 0 0 0 0 0 0 0 0 -0 -0 -0 -0 -0 0 0 0 0 0 0 0 0 0 0 0 0 0 0 0 0 0 0 0 0 0 0 0
0 0 0 0 0 0 0 0 0 0 0 0 0 0 0 0 -0 -0 -0 0 0 0 0 0 0 0 0 0 0 0 0 0 0 0 0 0 0 0 0 0 0 0 0
0 0 0 0 0 0 0 0 0 0 0 0 0 0 0 0 0 0 -0 -0 0 0 0 0 0 0 0 0 0 0 0 0 0 0 0 0 0 0 0 0 0 0 0
0 0 0 0 0 0 0 0 0 0 0 0 0 0 0 -0 0 -0 0 0 0 -0 0 0 0 0 0 0 0 0 0 0 0 0 0 0 0 0 0 0 0 0 0
-0 0 0 0 0 0 0 0 0 0 0 0 0 0 0 0 0 0 0 0 -0 -0 -0 0 0 0 0 0 0 0 0 0 0 0 0 0 0 0 0 0 0 0 0
-0 0 0 0 0 0 0 0 0 0 0 0 0 0 0 0 0 0 0 0 -0 -0 -0 -0 -0 -0 0 0 0 0 0 0 0 0 0 0 0 0 0 0 0 0 0
-0 0 0 0 0 0 0 0 0 0 0 0 0 0 0 0 0 0 0 0 -0 -0 -0 -0 -0 -0 -0 0 0 0 0 0 0 0 0 0 0 0 0 0 0 0 0
0 0 0 0 0 0 0 0 0 0 0 0 0 0 0 0 0 0 0 0 0 -0 -0 -0 -0 -0 -0 -0 0 0 0 0 0 0 0 0 0 0 0 0 0 0 0
0 0 0 0 0 0 0 0 0 0 0 0 0 0 0 0 0 0 0 0 -0 -0 -0 -0 -0 -0 -0 0 0 0 0 0 0 0 0 0 0 0 0 0 0 0 0
Wind_Speed_500mb
36 37 42 43 43 41 40 40 42 45 46 49 54 56 55 55 51 47 47 50 54 62 67 71 76 79 86 92 97 102 109 109 117 104 102 99 94 96 90 94 95 95 93
46 49 50 51 53 53 53 53 53 53 52 54 54 55 55 58 59 56 57 56 56 57 60 66 73 73 81 84 92 99 104 102 111 116 102 103 106 102 98 92 92 95 99
52 54 54 55 58 62 66 67 67 68 68 67 67 67 65 61 62 58 59 63 65 63 60 61 67 72 80 81 86 91 98 101 109 113 106 102 105 104 109 102 100 98 97
57 60 60 60 63 69 73 76 78 80 84 84 84 84 80 77 75 68 65 67 69 70 68 64 62 65 74 79 84 89 90 97 100 106 110 108 109 109 107 111 112 105 102
61 71 74 77 80 84 83 84 87 90 91 91 92 90 91 91 89 85 82 80 78 76 77 77 73 66 65 69 76 87 86 91 97 98 104 101 114 113 119 117 117 112 107
61 68 68 73 89 94 93 95 96 98 101 102 101 102 100 96 94 95 95 95 94 94 92 86 84 81 74 70 70 74 86 93 98 99 99 100 112 113 115 123 119 117 115
68 71 79 84 95 91 92 96 100 103 107 114 118 119 121 121 116 111 107 97 96 101 103 105 100 92 87 83 79 75 78 86 103 103 107 110 99 102 111 119 129 130 132
75 85 89 88 90 93 95 102 109 111 111 114 118 123 125 135 133 104 79 80 99 108 112 113 113 110 100 93 90 86 85 85 90 104 115 120 109 100 103 110 117 126 122
79 84 86 88 93 96 98 103 108 112 119 120 121 122 115 134 130 99 84 85 91 114 124 122 121 121 118 102 96 94 93 94 86 86 102 113 114 105 107 96 104 111 116
86 89 91 96 100 105 107 109 114 116 123 127 134 132 127 127 122 105 93 95 102 102 110 119 120 112 120 114 97 97 88 97 90 84 92 101 106 113 111 120 110 118 110
93 97 101 102 104 105 107 105 102 100 98 102 105 109 109 106 112 99 93 91 97 97 97 97 96 93 89 89 82 86 89 93 87 86 86 99 98 107 112 118 121 119 109
99 102 104 104 101 99 93 89 83 82 86 89 91 95 90 85 79 76 75 78 83 93 101 99 95 88 87 86 81 84 83 86 89 96 92 98 99 99 106 111 118 116 112
102 103 102 98 91 84 81 81 83 81 82 86 83 83 85 83 81 71 71 72 77 87 97 87 85 85 94 90 85 82 82 83 89 92 96 98 99 95 96 95 100 108 112
95 97 95 92 87 81 78 78 79 80 81 82 83 88 94 98 92 85 81 82 80 78 80 81 85 82 62 91 88 88 86 85 86 94 93 98 90 91 93 100 101 110 93
87 89 85 82 81 81 77 75 72 75 76 83 89 90 89 90 87 86 86 89 87 86 88 90 86 82 73 50 59 66 67 77 86 92 94 96 87 89 94 99 96 91 88
81 80 78 78 78 77 79 83 71 67 68 71 76 80 89 88 88 85 84 84 84 81 84 86 86 77 70 70 60 68 67 65 72 83 90 92 90 93 91 90 93 92 88
75 76 75 73 74 77 78 81 89 82 74 71 70 71 73 79 78 78 78 77 77 73 80 79 74 75 75 64 74 69 70 62 65 79 86 88 89 89 94 94 95 90 90
73 71 68 70 72 74 76 78 80 87 94 95 83 73 69 68 66 63 63 65 74 71 73 74 71 72 67 68 76 72 72 62 67 77 73 85 92 96 94 91 94 91 83
69 67 64 66 68 70 71 74 77 80 86 93 92 83 70 64 64 65 65 64 67 62 60 67 63 73 73 70 67 68 61 60 63 69 76 83 89 92 88 88 86 84 82
66 62 59 61 64 66 66 68 72 73 73 73 77 80 74 75 81 75 67 66 62 62 57 48 48 48 52 52 54 56 54 56 60 66 71 77 82 83 83 80 79 79 78
63 60 58 60 60 60 61 59 60 64 65 68 68 66 56 59 58 57 58 55 50 37 25 33 39 42 43 44 40 47 47 50 55 60 65 70 73 73 69 66 66 67 72
57 57 57 58 58 58 57 55 54 58 57 60 62 59 52 48 48 48 49 49 47 39 21 11 18 20 23 27 31 34 36 43 48 51 55 59 60 58 55 55 58 60 61
51 53 54 54 55 57 56 53 53 54 55 55 56 56 55 52 50 48 46 44 42 37 29 18 8 2 1 5 10 17 25 33 37 43 47 48 47 46 47 51 56 59 59
50 51 50 50 52 55 57 57 56 55 56 57 58 57 55 53 51 48 45 41 36 34 31 28 25 20 15 10 5 3 10 21 27 31 35 39 42 43 46 50 54 55 54
47 46 47 48 50 52 54 55 57 58 58 59 61 62 62 62 61 57 52 48 45 42 40 37 33 28 24 20 17 14 12 14 19 24 28 33 39 43 48 51 50 46 42
38 40 41 43 45 47 50 52 53 54 56 56 57 58 60 61 62 62 60 58 57 56 54 51 47 44 41 40 37 34 29 26 25 25 29 35 41 43 42 41 39 37 33
Wind_Direction_500mb
355 350 351 346 340 337 330 324 320 316 315 312 311 312 315 318 317 316 312 305 294 282 274 270 270 271 269 268 266 265 262 259 258 258 258 258 253 248 246 242 241 240 236
343 343 340 334 330 328 324 322 319 316 313 312 311 309 309 308 309 312 312 311 306 299 292 282 274 271 271 269 266 267 265 262 259 260 255 253 252 249 247 242 243 241 237
335 332 328 325 323 321 319 317 315 314 312 311 309 306 307 307 305 306 306 304 304 303 300 293 289 281 274 271 269 267 266 266 261 259 255 254 252 250 243 240 238 239 239
320 321 318 318 317 316 314 311 309 309 308 308 308 306 304 302 300 301 301 297 297 297 299 297 293 289 284 277 272 269 268 267 262 258 257 252 251 248 242 238 236 236 235
306 311 314 315 315 314 310 307 305 303 302 302 301 300 300 299 299 299 297 295 294 293 293 295 296 294 290 285 277 270 267 262 260 252 251 251 248 243 238 237 236 237 236
297 299 298 300 305 306 304 304 304 304 303 302 300 299 297 295 294 295 295 293 291 291 290 290 291 293 293 290 283 278 264 259 256 251 247 244 247 244 244 240 239 231 230
295 294 296 293 298 299 299 298 297 296 296 296 296 296 296 294 292 291 290 289 287 286 285 286 286 287 290 292 291 284 276 264 251 251 248 246 244 244 244 242 238 240 241
293 295 299 303 302 300 297 296 296 295 295 293 292 291 291 289 291 292 289 285 284 282 281 281 283 283 282 286 289 286 278 271 265 248 247 250 247 245 246 249 250 247 239
306 305 303 301 299 295 291 289 288 288 288 286 285 285 286 286 287 287 287 286 286 284 281 280 279 279 278 279 282 282 279 273 271 268 252 249 247 244 244 243 236 231 230
314 307 304 301 298 297 296 293 290 288 284 283 282 280 279 280 283 283 283 285 285 281 282 282 277 275 275 275 274 276 269 268 269 271 264 253 244 242 240 243 238 235 232
314 312 311 309 307 305 305 304 302 300 297 294 291 289 288 284 283 284 283 280 278 280 276 275 274 273 268 268 264 264 262 269 264 265 263 257 250 239 236 237 238 235 231
316 314 312 313 312 311 310 309 308 306 304 302 301 299 297 294 290 289 285 280 277 274 275 275 274 270 266 263 260 260 262 261 262 257 256 249 247 244 235 234 236 236 236
317 316 317 317 317 317 315 313 312 311 306 302 296 293 294 297 298 297 293 286 280 276 275 274 275 274 261 259 255 254 259 256 257 248 249 246 244 250 242 231 229 226 229
318 320 322 322 321 320 319 315 310 306 300 295 293 293 298 300 300 301 300 299 297 290 290 287 276 278 281 256 255 258 258 253 253 247 246 249 245 239 231 227 220 219 217
324 324 323 322 322 321 319 317 310 304 299 298 295 294 293 293 293 294 291 287 285 283 286 285 283 282 283 278 264 261 264 255 253 248 245 241 232 228 223 226 218 215 210
325 325 326 325 325 323 322 321 323 308 301 298 296 294 295 292 294 293 291 287 284 281 277 273 273 275 275 272 268 264 268 263 251 240 237 233 226 220 213 211 210 215 206
329 329 328 328 327 326 325 322 317 328 327 315 307 303 300 298 298 297 294 290 286 280 273 272 268 266 267 266 260 262 263 266 252 240 239 228 218 211 210 209 213 214 210
334 333 331 330 328 328 327 324 322 318 319 325 334 317 310 306 303 301 298 296 288 279 273 269 266 261 263 258 255 256 261 261 249 240 232 224 220 219 211 208 210 205 202
338 338 337 334 333 331 330 330 325 318 315 315 320 327 332 326 321 317 310 306 300 292 276 266 261 253 252 251 252 250 263 255 248 240 231 219 211 210 204 206 205 199 198
345 343 340 337 337 337 336 332 327 323 319 319 321 330 333 335 327 322 325 326 321 311 300 278 272 268 269 259 248 262 249 242 236 224 215 209 204 203 202 203 202 198 197
350 348 349 346 344 343 342 337 337 332 328 330 332 334 333 321 325 333 338 344 347 345 304 277 274 270 260 254 255 242 237 226 217 210 205 201 200 199 203 203 199 197 198
353 354 354 352 351 352 351 349 348 347 346 347 348 349 349 351 352 351 354 356 1 3 1 302 258 248 244 236 238 231 222 213 205 204 201 198 197 197 196 197 195 195 190
359 0 1 3 5 5 6 8 7 5 4 4 3 3 5 5 5 4 4 7 11 15 21 24 32 72 329 254 232 229 219 206 204 204 198 193 191 193 194 190 187 180 177
8 8 8 12 15 18 20 21 21 23 23 23 22 21 21 21 20 19 21 24 30 38 44 48 52 52 54 64 82 154 198 194 191 191 193 186 181 181 180 177 174 170 166
9 11 14 17 19 21 25 29 30 31 32 32 33 34 35 36 37 37 38 41 45 48 52 54 54 57 60 64 74 86 106 135 156 167 173 172 169 168 166 162 159 158 158
6 13 16 19 23 24 26 29 31 33 33 34 36 38 39 40 41 42 45 48 53 57 59 62 66 69 73 76 78 82 89 100 113 127 137 143 145 144 146 147 148 148 149
Wind_Speed_850mb
36 37 42 43 43 41 40 40 42 45 46 49 54 56 55 55 51 47 47 50 54 62 67 71 76 79 86 92 97 102 109 109 117 104 102 99 94 96 90 94 95 95 93
46 49 50 51 53 53 53 53 53 53 52 54 54 55 55 58 59 56 57 56 56 57 60 66 73 73 81 84 92 99 104 102 111 116 102 103 106 102 98 92 92 95 99
52 54 54 55 58 62 66 67 67 68 68 67 67 67 65 61 62 58 59 63 65 63 60 61 67 72 80 81 86 91 98 101 109 113 106 102 105 104 109 102 100 98 97
57 60 60 60 63 69 73 76 78 80 84 84 84 84 80 77 75 68 65 67 69 70 68 64 62 65 74 79 84 89 90 97 100 106 110 108 109 109 107 111 112 105 102
61 71 74 77 80 84 83 84 87 90 91 91 92 90 91 91 89 85 82 80 78 76 77 77 73 66 65 69 76 87 86 91 97 98 104 101 114 113 119 117 117 112 107
61 68 68 73 89 94 93 95 96 98 101 102 101 102 100 96 94 95 95 95 94 94 92 86 84 81 74 70 70 74 86 93 98 99 99 100 112 113 115 123 119 117 115
68 71 79 84 95 91 92 96 100 103 107 114 118 119 121 121 116 111 107 97 96 101 103 105 100 92 87 83 79 75 78 86 103 103 107 110 99 102 111 119 129 130 132
75 85 89 88 90 93 95 102 109 111 111 114 118 123 125 135 133 104 79 80 99 108 112 113 113 110 100 93 90 86 85 85 90 104 115 120 109 100 103 110 117 126 122
79 84 86 88 93 96 98 103 108 112 119 120 121 122 115 134 130 99 84 85 91 114 124 122 121 121 118 102 96 94 93 94 86 86 102 113 114 105 107 96 104 111 116
86 89 91 96 100 105 107 109 114 116 123 127 134 132 127 127 122 105 93 95 102 102 110 119 120 112 120 114 97 97 88 97 90 84 92 101 106 113 111 120 110 118 110
93 97 101 102 104 105 107 105 102 100 98 102 105 109 109 106 112 99 93 91 97 97 97 97 96 93 89 89 82 86 89 93 87 86 86 99 98 107 112 118 121 119 109
99 102 104 104 101 99 93 89 83 82 86 89 91 95 90 85 79 76 75 78 83 93 101 99 95 88 87 86 81 84 83 86 89 96 92 98 99 99 106 111 118 116 112
102 103 102 98 91 84 81 81 83 81 82 86 83 83 85 83 81 71 71 72 77 87 97 87 85 85 94 90 85 82 82 83 89 92 96 98 99 95 96 95 100 108 112
95 97 95 92 87 81 78 78 79 80 81 82 83 88 94 98 92 85 81 82 80 78 80 81 85 82 62 91 88 88 86 85 86 94 93 98 90 91 93 100 101 110 93
87 89 85 82 81 81 77 75 72 75 76 83 89 90 89 90 87 86 86 89 87 86 88 90 86 82 73 50 59 66 67 77 86 92 94 96 87 89 94 99 96 91 88
81 80 78 78 78 77 79 83 71 67 68 71 76 80 89 88 88 85 84 84 84 81 84 86 86 77 70 70 60 68 67 65 72 83 90 92 90 93 91 90 93 92 88
75 76 75 73 74 77 78 81 89 82 74 71 70 71 73 79 78 78 78 77 77 73 80 79 74 75 75 64 74 69 70 62 65 79 86 88 89 89 94 94 95 90 90
73 71 68 70 72 74 76 78 80 87 94 95 83 73 69 68 66 63 63 65 74 71 73 74 71 72 67 68 76 72 72 62 67 77 73 85 92 96 94 91 94 91 83
69 67 64 66 68 70 71 74 77 80 86 93 92 83 70 64 64 65 65 64 67 62 60 67 63 73 73 70 67 68 61 60 63 69 76 83 89 92 88 88 86 84 82
66 62 59 61 64 66 66 68 72 73 73 73 77 80 74 75 81 75 67 66 62 62 57 48 48 48 52 52 54 56 54 56 60 66 71 77 82 83 83 80 79 79 78
63 60 58 60 60 60 61 59 60 64 65 68 68 66 56 59 58 57 58 55 50 37 25 33 39 42 43 44 40 47 47 50 55 60 65 70 73 73 69 66 66 67 72
57 57 57 58 58 58 57 55 54 58 57 60 62 59 52 48 48 48 49 49 47 39 21 11 18 20 23 27 31 34 36 43 48 51 55 59 60 58 55 55 58 60 61
51 53 54 54 55 57 56 53 53 54 55 55 56 56 55 52 50 48 46 44 42 37 29 18 8 2 1 5 10 17 25 33 37 43 47 48 47 46 47 51 56 59 59
50 51 50 50 52 55 57 57 56 55 56 57 58 57 55 53 51 48 45 41 36 34 31 28 25 20 15 10 5 3 10 21 27 31 35 39 42 43 46 50 54 55 54
47 46 47 48 50 52 54 55 57 58 58 59 61 62 62 62 61 57 52 48 45 42 40 37 33 28 24 20 17 14 12 14 19 24 28 33 39 43 48 51 50 46 42
38 40 41 43 45 47 50 52 53 54 56 56 57 58 60 61 62 62 60 58 57 56 54 51 47 44 41 40 37 34 29 26 25 25 29 35 41 43 42 41 39 37 33
Wind_Direction_850mb
355 350 351 346 340 337 330 324 320 316 315 312 311 312 315 318 317 316 312 305 294 282 274 270 270 271 269 268 266 265 262 259 258 258 258 258 253 248 246 242 241 240 236
343 343 340 334 330 328 324 322 319 316 313 312 311 309 309 308 309 312 312 311 306 299 292 282 274 271 271 269 266 267 265 262 259 260 255 253 252 249 247 242 243 241 237
335 332 328 325 323 321 319 317 315 314 312 311 309 306 307 307 305 306 306 304 304 303 300 293 289 281 274 271 269 267 266 266 261 259 255 254 252 250 243 240 238 239 239
320 321 318 318 317 316 314 311 309 309 308 308 308 306 304 302 300 301 301 297 297 297 299 297 293 289 284 277 272 269 268 267 262 258 257 252 251 248 242 238 236 236 235
306 311 314 315 315 314 310 307 305 303 302 302 301 300 300 299 299 299 297 295 294 293 293 295 296 294 290 285 277 270 267 262 260 252 251 251 248 243 238 237 236 237 236
297 299 298 300 305 306 304 304 304 304 303 302 300 299 297 295 294 295 295 293 291 291 290 290 291 293 293 290 283 278 264 259 256 251 247 244 247 244 244 240 239 231 230
295 294 296 293 298 299 299 298 297 296 296 296 296 296 296 294 292 291 290 289 287 286 285 286 286 287 290 292 291 284 276 264 251 251 248 246 244 244 244 242 238 240 241
293 295 299 303 302 300 297 296 296 295 295 293 292 291 291 289 291 292 289 285 284 282 281 281 283 283 282 286 289 286 278 271 265 248 247 250 247 245 246 249 250 247 239
306 305 303 301 299 295 291 289 288 288 288 286 285 285 286 286 287 287 287 286 286 284 281 280 279 279 278 279 282 282 279 273 271 268 252 249 247 244 244 243 236 231 230
314 307 304 301 298 297 296 293 290 288 284 283 282 280 279 280 283 283 283 285 285 281 282 282 277 275 275 275 274 276 269 268 269 271 264 253 244 242 240 243 238 235 232
314 312 311 309 307 305 305 304 302 300 297 294 291 289 288 284 283 284 283 280 278 280 276 275 274 273 268 268 264 264 262 269 264 265 263 257 250 239 236 237 238 235 231
316 314 312 313 312 311 310 309 308 306 304 302 301 299 297 294 290 289 285 280 277 274 275 275 274 270 266 263 260 260 262 261 262 257 256 249 247 244 235 234 236 236 236
317 316 317 317 317 317 315 313 312 311 306 302 296 293 294 297 298 297 293 286 280 276 275 274 275 274 261 259 255 254 259 256 257 248 249 246 244 250 242 231 229 226 229
318 320 322 322 321 320 319 315 310 306 300 295 293 293 298 300 300 301 300 299 297 290 290 287 276 278 281 256 255 258 258 253 253 247 246 249 245 239 231 227 220 219 217
324 324 323 322 322 321 319 317 310 304 299 298 295 294 293 293 293 294 291 287 285 283 286 285 283 282 283 278 264 261 264 255 253 248 245 241 232 228 223 226 218 215 210
325 325 326 325 325 323 322 321 323 308 301 298 296 294 295 292 294 293 291 287 284 281 277 273 273 275 275 272 268 264 268 263 251 240 237 233 226 220 213 211 210 215 206
329 329 328 328 327 326 325 322 317 328 327 315 307 303 300 298 298 297 294 290 286 280 273 272 268 266 267 266 260 262 263 266 252 240 239 228 218 211 210 209 213 214 210
334 333 331 330 328 328 327 324 322 318 319 325 334 317 310 306 303 301 298 296 288 279 273 269 266 261 263 258 255 256 261 261 249 240 232 224 220 219 211 208 210 205 202
338 338 337 334 333 331 330 330 325 318 315 315 320 327 332 326 321 317 310 306 300 292 276 266 261 253 252 251 252 250 263 255 248 240 231 219 211 210 204 206 205 199 198
345 343 340 337 337 337 336 332 327 323 319 319 321 330 333 335 327 322 325 326 321 311 300 278 272 268 269 259 248 262 249 242 236 224 215 209 204 203 202 203 202 198 197
350 348 349 346 344 343 342 337 337 332 328 330 332 334 333 321 325 333 338 344 347 345 304 277 274 270 260 254 255 242 237 226 217 210 205 201 200 199 203 203 199 197 198
353 354 354 352 351 352 351 349 348 347 346 347 348 349 349 351 352 351 354 356 1 3 1 302 258 248 244 236 238 231 222 213 205 204 201 198 197 197 196 197 195 195 190
359 0 1 3 5 5 6 8 7 5 4 4 3 3 5 5 5 4 4 7 11 15 21 24 32 72 329 254 232 229 219 206 204 204 198 193 191 193 194 190 187 180 177
8 8 8 12 15 18 20 21 21 23 23 23 22 21 21 21 20 19 21 24 30 38 44 48 52 52 54 64 82 154 198 194 191 191 193 186 181 181 180 177 174 170 166
9 11 14 17 19 21 25 29 30 31 32 32 33 34 35 36 37 37 38 41 45 48 52 54 54 57 60 64 74 86 106 135 156 167 173 172 169 168 166 162 159 158 158
6 13 16 19 23 24 26 29 31 33 33 34 36 38 39 40 41 42 45 48 53 57 59 62 66 69 73 76 78 82 89 100 113 127 137 143 145 144 146 147 148 148 149